Tanana, AK

6:14 PM AKDT on September 25, 2017 (GMT -0800)
Calhoun Memorial

Weather History for PATA - November, 2012

Change the Weather History Date:

Monday, November 5, 2012

  Actual Average Record
Temperature  
Mean Temperature -4 °F -  
Max Temperature 3 °F 15 °F 36 °F (1990)
Min Temperature -11 °F 1 °F -32 °F (1956)
Degree Days  
Heating Degree Days 69    
Moisture  
Dew Point -10 °F    
Average Humidity 73    
Maximum Humidity 83    
Minimum Humidity 58    
Precipitation  
Precipitation 0.00 in - - ()
Snow  
Snow 0.00 in - - ()
Snow Depth 3.00 in    
Sea Level Pressure  
Sea Level Pressure 30.17 in    
Wind  
Wind Speed 2 mph (North)    
Max Wind Speed 9 mph    
Max Gust Speed -    
Visibility 10 miles    
Events      
Averages and records for this station are not official NWS values.
T = Trace of Precipitation, MM = Missing Value Source: NWS Daily Summary

Daily Weather History Graph

Daily Weather History Graph

Search for Another Location

Airport or City:

Trip Planner

Search our weather history database for the weather conditions in past years. The results will help you decide how hot, cold, wet, or windy it might be!

Date:

Astronomy

Nov. 05, 2012 Rise Set
Actual Time 9:14 AM AKST 4:28 PM AKST
Civil Twilight 8:16 AM AKST 5:26 PM AKST
Nautical Twilight 7:15 AM AKST 6:27 PM AKST
Astronomical Twilight 6:17 AM AKST 7:24 PM AKST
Moon 10:23 PM AKST (11/5) 2:39 PM AKST (11/5)
Length of Visible Light 9h 10m
Length of Day
7h 14m
Waning Gibbous, 61% of the Moon is Illuminated
Nov 5
Waning Gibbous
Nov 6
Last Quarter
Nov 13
New
Nov 20
First Quarter
Nov 28
Full

Hourly Weather History & Observations

Time (AKST) Temp. Windchill Dew Point Humidity Pressure Visibility Wind Dir Wind Speed Gust Speed Precip Events Conditions
12:52 AM -8.0 °F -16.9 °F -13.0 °F 79% 29.98 in 10.0 mi NNW 3.5 mph - N/A   Clear
1:52 AM -0.9 °F - -8.0 °F 72% 29.99 in 10.0 mi Calm Calm - N/A   Clear
2:52 AM -5.1 °F -13.6 °F -9.9 °F 80% 30.01 in 10.0 mi NW 3.5 mph - N/A   Clear
3:52 AM -8.0 °F - -11.9 °F 83% 30.03 in 10.0 mi Calm Calm - N/A   Clear
4:52 AM -9.9 °F - -14.1 °F 82% 30.04 in 10.0 mi Calm Calm - N/A   Clear
5:52 AM -9.0 °F - -15.0 °F 75% 30.07 in 10.0 mi Calm Calm - N/A   Clear
6:52 AM -9.9 °F - -16.1 °F 74% 30.08 in 10.0 mi Calm Calm - N/A   Clear
7:52 AM -8.0 °F - -13.0 °F 79% 30.10 in 10.0 mi Calm Calm - N/A   Partly Cloudy
8:52 AM -6.0 °F -14.7 °F -11.0 °F 79% 30.12 in 10.0 mi ESE 3.5 mph - N/A   Partly Cloudy
9:52 AM -4.0 °F - -9.0 °F 79% 30.14 in 10.0 mi Calm Calm - N/A   Partly Cloudy
10:52 AM -4.0 °F - -9.9 °F 76% 30.16 in 10.0 mi Calm Calm - N/A   Clear
11:52 AM -0.0 °F - -7.1 °F 72% 30.17 in 10.0 mi Calm Calm - N/A   Clear
12:52 PM 1.0 °F - -7.1 °F 69% 30.18 in 10.0 mi Calm Calm - N/A   Clear
1:52 PM 1.9 °F -9.2 °F -7.1 °F 66% 30.19 in 10.0 mi ESE 5.8 mph - N/A   Clear
2:52 PM 3.9 °F - -6.0 °F 64% 30.20 in 10.0 mi Calm Calm - N/A   Clear
3:52 PM 3.9 °F - -5.1 °F 66% 30.22 in 10.0 mi Calm Calm - N/A   Partly Cloudy
4:52 PM 1.0 °F - -8.0 °F 66% 30.24 in 10.0 mi Calm Calm - N/A   Clear
5:52 PM 3.9 °F -10.4 °F -8.0 °F 58% 30.25 in 10.0 mi NW 9.2 mph - N/A   Clear
6:52 PM 3.0 °F -6.4 °F -8.0 °F 60% 30.27 in 10.0 mi WNW 4.6 mph - N/A   Clear
7:52 PM 1.9 °F -9.2 °F -8.0 °F 63% 30.28 in 10.0 mi NW 5.8 mph - N/A   Clear
8:52 PM 1.0 °F -8.7 °F -8.0 °F 66% 30.29 in 10.0 mi ESE 4.6 mph - N/A   Clear
9:52 PM -8.0 °F -16.9 °F -13.0 °F 79% 30.31 in 10.0 mi North 3.5 mph - N/A   Clear
10:52 PM -11.9 °F - -17.0 °F 78% 30.32 in 10.0 mi Calm Calm - N/A   Clear
11:52 PM -11.9 °F -21.5 °F -17.0 °F 78% 30.34 in 10.0 mi NE 3.5 mph - N/A   Clear